Saint Bonnet de Bellac- Haute Vienne - France
Donnes mto: mardi, 04/09/2012
Date Horaire Temp. E. Hum. E. P.atmo. Pluie Vent Direction Direction Ensoleilleme Solaire P. de rose Temp au vent Rafales
04/09/2012 00:00 14,8 C 81 % 1022,3 hPa 0,0 mm 0,0 km/h (0 Bft) N-NO 337 0 min 0 W/m 11,6 C 14,8 C 0,0 km/h (0 Bft)
04/09/2012 00:10 14,8 C 82 % 1022,4 hPa 0,0 mm 0,0 km/h (0 Bft) N 360 0 min 0 W/m 11,8 C 14,8 C 0,0 km/h (0 Bft)
04/09/2012 00:20 14,6 C 82 % 1022,3 hPa 0,0 mm 0,0 km/h (0 Bft) N 360 0 min 0 W/m 11,6 C 14,6 C 0,0 km/h (0 Bft)
04/09/2012 00:30 14,5 C 83 % 1022,4 hPa 0,0 mm 0,0 km/h (0 Bft) N 360 0 min 0 W/m 11,6 C 14,5 C 0,0 km/h (0 Bft)
04/09/2012 00:40 14,4 C 83 % 1022,4 hPa 0,0 mm 0,0 km/h (0 Bft) N 360 0 min 0 W/m 11,5 C 14,4 C 0,0 km/h (0 Bft)
04/09/2012 00:50 14,1 C 83 % 1022,3 hPa 0,0 mm 0,0 km/h (0 Bft) N 360 0 min 0 W/m 11,3 C 14,1 C 0,0 km/h (0 Bft)
04/09/2012 01:00 13,9 C 83 % 1022,3 hPa 0,0 mm 0,0 km/h (0 Bft) N 360 0 min 0 W/m 11,1 C 13,9 C 0,0 km/h (0 Bft)
04/09/2012 01:10 13,8 C 83 % 1022,3 hPa 0,0 mm 0,0 km/h (0 Bft) N 360 0 min 0 W/m 11,0 C 13,8 C 0,0 km/h (0 Bft)
04/09/2012 01:20 13,5 C 84 % 1022,3 hPa 0,0 mm 0,0 km/h (0 Bft) N 360 0 min 0 W/m 10,8 C 13,5 C 0,0 km/h (0 Bft)
04/09/2012 01:30 13,4 C 84 % 1022,2 hPa 0,0 mm 0,0 km/h (0 Bft) N 360 0 min 0 W/m 10,8 C 13,4 C 0,0 km/h (0 Bft)
04/09/2012 01:40 13,4 C 85 % 1022,0 hPa 0,0 mm 0,0 km/h (0 Bft) N 360 0 min 0 W/m 10,9 C 13,4 C 0,0 km/h (0 Bft)
04/09/2012 01:50 13,3 C 85 % 1021,9 hPa 0,0 mm 0,0 km/h (0 Bft) N 360 0 min 0 W/m 10,8 C 13,3 C 0,0 km/h (0 Bft)
04/09/2012 02:00 13,3 C 85 % 1021,8 hPa 0,0 mm 0,0 km/h (0 Bft) N 360 0 min 0 W/m 10,8 C 13,3 C 0,0 km/h (0 Bft)
04/09/2012 02:10 13,3 C 86 % 1021,7 hPa 0,0 mm 0,0 km/h (0 Bft) N 360 0 min 0 W/m 11,0 C 13,3 C 0,0 km/h (0 Bft)
04/09/2012 02:20 13,1 C 86 % 1021,6 hPa 0,0 mm 0,0 km/h (0 Bft) N 360 0 min 0 W/m 10,8 C 13,1 C 0,0 km/h (0 Bft)
04/09/2012 02:30 12,8 C 86 % 1021,5 hPa 0,0 mm 0,0 km/h (0 Bft) N 360 0 min 0 W/m 10,5 C 12,8 C 0,0 km/h (0 Bft)
04/09/2012 02:40 12,6 C 86 % 1021,4 hPa 0,0 mm 0,0 km/h (0 Bft) N 360 0 min 0 W/m 10,3 C 12,6 C 0,0 km/h (0 Bft)
04/09/2012 02:50 12,5 C 86 % 1021,4 hPa 0,0 mm 0,0 km/h (0 Bft) N 360 0 min 0 W/m 10,2 C 12,5 C 0,0 km/h (0 Bft)
04/09/2012 03:02 12,4 C 86 % 1021,5 hPa 0,0 mm 0,0 km/h (0 Bft) N 360 0 min 0 W/m 10,1 C 12,4 C 0,0 km/h (0 Bft)
04/09/2012 03:10 12,4 C 86 % 1021,3 hPa 0,0 mm 0,0 km/h (0 Bft) N 360 0 min 0 W/m 10,1 C 12,4 C 0,0 km/h (0 Bft)
04/09/2012 03:20 12,4 C 87 % 1021,3 hPa 0,0 mm 0,0 km/h (0 Bft) NO 315 0 min 0 W/m 10,3 C 12,4 C 0,0 km/h (0 Bft)
04/09/2012 03:30 12,4 C 87 % 1021,3 hPa 0,0 mm 0,0 km/h (0 Bft) N 360 0 min 0 W/m 10,3 C 12,4 C 0,0 km/h (0 Bft)
04/09/2012 03:40 12,5 C 87 % 1021,2 hPa 0,0 mm 0,0 km/h (0 Bft) N-NE 22 0 min 0 W/m 10,4 C 12,5 C 1,8 km/h (1 Bft)
04/09/2012 03:50 12,5 C 87 % 1021,2 hPa 0,0 mm 0,0 km/h (0 Bft) N-NE 22 0 min 0 W/m 10,4 C 12,5 C 0,0 km/h (0 Bft)
04/09/2012 04:00 12,4 C 88 % 1021,1 hPa 0,0 mm 0,4 km/h (0 Bft) N 360 0 min 0 W/m 10,5 C 12,4 C 0,4 km/h (0 Bft)
04/09/2012 04:10 12,4 C 88 % 1021,1 hPa 0,0 mm 0,0 km/h (0 Bft) N 360 0 min 0 W/m 10,5 C 12,4 C 0,0 km/h (0 Bft)
04/09/2012 04:20 12,4 C 88 % 1021,1 hPa 0,0 mm 0,0 km/h (0 Bft) N 360 0 min 0 W/m 10,5 C 12,4 C 0,0 km/h (0 Bft)
04/09/2012 04:30 12,4 C 88 % 1021,1 hPa 0,0 mm 0,0 km/h (0 Bft) N 360 0 min 0 W/m 10,5 C 12,4 C 0,0 km/h (0 Bft)
04/09/2012 04:40 12,5 C 88 % 1020,9 hPa 0,0 mm 0,0 km/h (0 Bft) N 360 0 min 0 W/m 10,6 C 12,5 C 0,0 km/h (0 Bft)
04/09/2012 04:50 12,5 C 88 % 1020,9 hPa 0,0 mm 0,0 km/h (0 Bft) N 360 0 min 0 W/m 10,6 C 12,5 C 0,0 km/h (0 Bft)
04/09/2012 05:00 12,5 C 89 % 1021,0 hPa 0,0 mm 0,0 km/h (0 Bft) N 360 0 min 0 W/m 10,7 C 12,5 C 0,0 km/h (0 Bft)
04/09/2012 05:10 12,5 C 89 % 1021,0 hPa 0,0 mm 0,0 km/h (0 Bft) N-NO 337 0 min 0 W/m 10,7 C 12,5 C 0,0 km/h (0 Bft)
04/09/2012 05:20 12,5 C 89 % 1020,9 hPa 0,0 mm 0,0 km/h (0 Bft) N-NO 337 0 min 0 W/m 10,7 C 12,5 C 0,0 km/h (0 Bft)
04/09/2012 05:30 12,6 C 89 % 1020,8 hPa 0,0 mm 0,0 km/h (0 Bft) N-NO 337 0 min 0 W/m 10,8 C 12,6 C 0,0 km/h (0 Bft)
04/09/2012 05:40 12,5 C 89 % 1020,8 hPa 0,0 mm 0,0 km/h (0 Bft) NE 45 0 min 0 W/m 10,7 C 12,5 C 0,0 km/h (0 Bft)
04/09/2012 05:50 12,4 C 90 % 1020,8 hPa 0,0 mm 0,0 km/h (0 Bft) NE 45 0 min 0 W/m 10,8 C 12,4 C 0,0 km/h (0 Bft)
04/09/2012 06:00 12,4 C 89 % 1020,7 hPa 0,0 mm 0,0 km/h (0 Bft) NE 45 0 min 0 W/m 10,6 C 12,4 C 0,0 km/h (0 Bft)
04/09/2012 06:10 12,3 C 90 % 1020,8 hPa 0,0 mm 0,0 km/h (0 Bft) NE 45 0 min 0 W/m 10,7 C 12,3 C 0,0 km/h (0 Bft)
04/09/2012 06:20 12,1 C 90 % 1020,7 hPa 0,0 mm 0,0 km/h (0 Bft) NE 45 0 min 0 W/m 10,5 C 12,1 C 0,0 km/h (0 Bft)
04/09/2012 06:30 11,9 C 90 % 1020,6 hPa 0,0 mm 0,0 km/h (0 Bft) N 360 0 min 0 W/m 10,3 C 11,9 C 0,0 km/h (0 Bft)
04/09/2012 06:40 11,9 C 90 % 1020,6 hPa 0,0 mm 0,0 km/h (0 Bft) N 360 0 min 0 W/m 10,3 C 11,9 C 0,0 km/h (0 Bft)
04/09/2012 06:50 12,1 C 90 % 1020,7 hPa 0,0 mm 0,7 km/h (0 Bft) N 360 0 min 0 W/m 10,5 C 12,1 C 4,3 km/h (1 Bft)
04/09/2012 07:00 12,1 C 90 % 1020,7 hPa 0,0 mm 0,4 km/h (0 Bft) N-NO 337 0 min 0 W/m 10,5 C 12,1 C 4,3 km/h (1 Bft)
04/09/2012 07:10 12,1 C 90 % 1020,9 hPa 0,0 mm 0,0 km/h (0 Bft) N 360 0 min 0 W/m 10,5 C 12,1 C 0,0 km/h (0 Bft)
04/09/2012 07:20 12,1 C 90 % 1020,9 hPa 0,0 mm 0,0 km/h (0 Bft) N 360 0 min 0 W/m 10,5 C 12,1 C 0,0 km/h (0 Bft)
04/09/2012 07:30 12,2 C 90 % 1020,9 hPa 0,0 mm 0,0 km/h (0 Bft) N 360 0 min 0 W/m 10,6 C 12,2 C 0,0 km/h (0 Bft)
04/09/2012 07:40 12,2 C 90 % 1020,9 hPa 0,0 mm 0,0 km/h (0 Bft) N 360 0 min 0 W/m 10,6 C 12,2 C 0,0 km/h (0 Bft)
04/09/2012 07:50 12,3 C 90 % 1021,0 hPa 0,0 mm 0,0 km/h (0 Bft) N 360 0 min 0 W/m 10,7 C 12,3 C 0,0 km/h (0 Bft)
04/09/2012 08:00 12,5 C 91 % 1021,0 hPa 0,0 mm 0,0 km/h (0 Bft) N 360 0 min 0 W/m 11,1 C 12,5 C 0,0 km/h (0 Bft)
04/09/2012 08:10 12,7 C 91 % 1021,0 hPa 0,0 mm 0,0 km/h (0 Bft) N 360 0 min 0 W/m 11,3 C 12,7 C 0,0 km/h (0 Bft)
04/09/2012 08:20 12,8 C 91 % 1021,0 hPa 0,0 mm 0,0 km/h (0 Bft) N 360 0 min 0 W/m 11,4 C 12,8 C 0,0 km/h (0 Bft)
04/09/2012 08:30 13,1 C 91 % 1020,9 hPa 0,0 mm 0,7 km/h (0 Bft) N-NO 337 0 min 0 W/m 11,7 C 13,1 C 3,2 km/h (1 Bft)
04/09/2012 08:40 13,2 C 91 % 1021,0 hPa 0,0 mm 0,7 km/h (0 Bft) NE 45 0 min 0 W/m 11,8 C 13,2 C 4,3 km/h (1 Bft)
04/09/2012 08:50 13,3 C 91 % 1021,0 hPa 0,0 mm 2,5 km/h (1 Bft) N 360 0 min 0 W/m 11,9 C 13,3 C 4,3 km/h (1 Bft)
04/09/2012 09:00 13,4 C 91 % 1021,1 hPa 0,0 mm 0,0 km/h (0 Bft) N 360 0 min 0 W/m 12,0 C 13,4 C 0,0 km/h (0 Bft)
04/09/2012 09:10 13,6 C 91 % 1021,0 hPa 0,0 mm 0,0 km/h (0 Bft) N-NE 22 0 min 0 W/m 12,2 C 13,6 C 0,0 km/h (0 Bft)
04/09/2012 09:20 13,8 C 91 % 1021,0 hPa 0,0 mm 1,4 km/h (1 Bft) N 360 0 min 0 W/m 12,4 C 13,8 C 3,2 km/h (1 Bft)
04/09/2012 09:30 13,9 C 91 % 1021,0 hPa 0,0 mm 1,8 km/h (1 Bft) N-NE 22 0 min 0 W/m 12,5 C 13,9 C 4,0 km/h (1 Bft)
04/09/2012 09:40 14,2 C 91 % 1021,1 hPa 0,0 mm 2,2 km/h (1 Bft) N-NE 22 0 min 0 W/m 12,8 C 14,2 C 4,3 km/h (1 Bft)
04/09/2012 09:50 14,4 C 91 % 1021,0 hPa 0,0 mm 3,2 km/h (1 Bft) NE 45 0 min 0 W/m 12,9 C 14,4 C 3,6 km/h (1 Bft)
04/09/2012 10:00 14,8 C 91 % 1021,0 hPa 0,0 mm 0,0 km/h (0 Bft) NE 45 0 min 0 W/m 13,3 C 14,8 C 1,8 km/h (1 Bft)
04/09/2012 10:10 15,6 C 92 % 1021,1 hPa 0,0 mm 1,8 km/h (1 Bft) N-NE 22 0 min 0 W/m 14,3 C 15,6 C 1,8 km/h (1 Bft)
04/09/2012 10:20 16,4 C 91 % 1021,1 hPa 0,0 mm 8,6 km/h (2 Bft) N 360 0 min 0 W/m 14,9 C 16,4 C 11,5 km/h (2 Bft)
04/09/2012 10:30 16,9 C 89 % 1021,1 hPa 0,0 mm 6,5 km/h (2 Bft) N-NE 22 0 min 0 W/m 15,1 C 16,9 C 10,1 km/h (2 Bft)
04/09/2012 10:40 17,6 C 85 % 1021,3 hPa 0,0 mm 0,7 km/h (0 Bft) N-NE 22 0 min 0 W/m 15,0 C 17,6 C 0,7 km/h (0 Bft)
04/09/2012 10:50 17,8 C 82 % 1021,4 hPa 0,0 mm 5,0 km/h (1 Bft) N 360 0 min 0 W/m 14,7 C 17,8 C 9,0 km/h (2 Bft)
04/09/2012 11:00 18,3 C 80 % 1021,4 hPa 0,0 mm 4,0 km/h (1 Bft) N-NE 22 0 min 0 W/m 14,8 C 18,3 C 4,3 km/h (1 Bft)
04/09/2012 11:10 19,0 C 78 % 1021,5 hPa 0,0 mm 4,0 km/h (1 Bft) N-NE 22 0 min 0 W/m 15,1 C 19,0 C 9,4 km/h (2 Bft)
04/09/2012 11:20 19,9 C 76 % 1021,5 hPa 0,0 mm 0,4 km/h (0 Bft) E-NE 67 0 min 0 W/m 15,5 C 19,9 C 0,4 km/h (0 Bft)
04/09/2012 11:30 20,6 C 73 % 1021,5 hPa 0,0 mm 4,3 km/h (1 Bft) N-NE 22 0 min 0 W/m 15,6 C 20,6 C 10,4 km/h (2 Bft)
04/09/2012 11:40 21,3 C 71 % 1021,7 hPa 0,0 mm 2,9 km/h (1 Bft) N-NE 22 0 min 0 W/m 15,8 C 21,3 C 4,3 km/h (1 Bft)
04/09/2012 11:50 21,9 C 68 % 1021,5 hPa 0,0 mm 5,8 km/h (2 Bft) N 360 0 min 0 W/m 15,7 C 21,9 C 10,4 km/h (2 Bft)
04/09/2012 12:00 22,4 C 67 % 1021,5 hPa 0,0 mm 1,1 km/h (1 Bft) N-NE 22 0 min 0 W/m 16,0 C 22,4 C 3,6 km/h (1 Bft)
04/09/2012 12:10 22,8 C 66 % 1021,3 hPa 0,0 mm 1,4 km/h (1 Bft) E-NE 67 0 min 0 W/m 16,1 C 22,8 C 3,6 km/h (1 Bft)
04/09/2012 12:20 23,1 C 64 % 1021,3 hPa 0,0 mm 5,4 km/h (2 Bft) N 360 0 min 0 W/m 15,9 C 23,1 C 10,1 km/h (2 Bft)
04/09/2012 12:30 23,4 C 63 % 1021,2 hPa 0,0 mm 3,6 km/h (1 Bft) NE 45 0 min 0 W/m 15,9 C 23,4 C 4,0 km/h (1 Bft)
04/09/2012 12:40 23,6 C 61 % 1021,2 hPa 0,0 mm 2,2 km/h (1 Bft) N 360 0 min 0 W/m 15,6 C 23,6 C 3,6 km/h (1 Bft)
04/09/2012 12:50 23,8 C 60 % 1021,2 hPa 0,0 mm 6,8 km/h (2 Bft) N 360 0 min 0 W/m 15,6 C 23,8 C 12,2 km/h (2 Bft)
04/09/2012 13:00 24,0 C 59 % 1021,1 hPa 0,0 mm 3,6 km/h (1 Bft) N 360 0 min 0 W/m 15,5 C 24,0 C 6,1 km/h (2 Bft)
04/09/2012 13:10 24,2 C 57 % 1021,1 hPa 0,0 mm 2,9 km/h (1 Bft) NE 45 0 min 0 W/m 15,1 C 24,2 C 6,8 km/h (2 Bft)
04/09/2012 13:20 24,1 C 57 % 1021,0 hPa 0,0 mm 7,6 km/h (2 Bft) N 360 0 min 0 W/m 15,0 C 24,1 C 13,0 km/h (3 Bft)
04/09/2012 13:30 24,0 C 58 % 1021,1 hPa 0,0 mm 4,7 km/h (1 Bft) N 360 0 min 0 W/m 15,2 C 24,0 C 11,5 km/h (2 Bft)
04/09/2012 13:40 24,1 C 58 % 1021,1 hPa 0,0 mm 1,1 km/h (1 Bft) N 360 0 min 0 W/m 15,3 C 24,1 C 3,2 km/h (1 Bft)
04/09/2012 13:50 24,0 C 58 % 1021,0 hPa 0,0 mm 2,9 km/h (1 Bft) N-NE 22 0 min 0 W/m 15,2 C 24,0 C 4,3 km/h (1 Bft)
04/09/2012 14:00 24,1 C 58 % 1021,0 hPa 0,0 mm 5,4 km/h (2 Bft) NE 45 0 min 0 W/m 15,3 C 24,1 C 7,6 km/h (2 Bft)
04/09/2012 14:10 23,9 C 57 % 1020,9 hPa 0,0 mm 2,5 km/h (1 Bft) NO 315 0 min 0 W/m 14,9 C 23,9 C 8,6 km/h (2 Bft)
04/09/2012 14:20 23,9 C 57 % 1020,8 hPa 0,0 mm 6,8 km/h (2 Bft) N 360 0 min 0 W/m 14,9 C 23,9 C 7,9 km/h (2 Bft)
04/09/2012 14:30 23,9 C 57 % 1020,7 hPa 0,0 mm 2,9 km/h (1 Bft) NE 45 0 min 0 W/m 14,9 C 23,9 C 4,7 km/h (1 Bft)
04/09/2012 14:40 24,1 C 57 % 1020,7 hPa 0,0 mm 2,9 km/h (1 Bft) NE 45 0 min 0 W/m 15,0 C 24,1 C 4,0 km/h (1 Bft)
04/09/2012 14:50 24,3 C 55 % 1020,6 hPa 0,0 mm 3,6 km/h (1 Bft) N 360 0 min 0 W/m 14,7 C 24,3 C 8,6 km/h (2 Bft)
04/09/2012 15:00 24,6 C 55 % 1020,5 hPa 0,0 mm 3,2 km/h (1 Bft) N-NE 22 0 min 0 W/m 14,9 C 24,6 C 3,2 km/h (1 Bft)
04/09/2012 15:10 24,8 C 53 % 1020,3 hPa 0,0 mm 5,8 km/h (2 Bft) N-NE 22 0 min 0 W/m 14,6 C 24,8 C 14,4 km/h (3 Bft)
04/09/2012 15:20 25,1 C 52 % 1020,3 hPa 0,0 mm 8,6 km/h (2 Bft) N 360 0 min 0 W/m 14,5 C 25,1 C 12,6 km/h (3 Bft)
04/09/2012 15:30 25,3 C 50 % 1020,3 hPa 0,0 mm 3,6 km/h (1 Bft) N-NE 22 0 min 0 W/m 14,1 C 25,3 C 4,3 km/h (1 Bft)
04/09/2012 15:40 25,5 C 51 % 1020,1 hPa 0,0 mm 5,0 km/h (1 Bft) N 360 0 min 0 W/m 14,6 C 25,5 C 5,0 km/h (1 Bft)
04/09/2012 15:50 25,8 C 49 % 1019,9 hPa 0,0 mm 5,4 km/h (2 Bft) NE 45 0 min 0 W/m 14,3 C 25,8 C 8,3 km/h (2 Bft)
04/09/2012 16:00 26,2 C 49 % 1019,8 hPa 0,0 mm 5,0 km/h (1 Bft) NE 45 0 min 0 W/m 14,6 C 26,2 C 5,0 km/h (1 Bft)
04/09/2012 16:10 26,4 C 48 % 1019,8 hPa 0,0 mm 1,4 km/h (1 Bft) N-NE 22 0 min 0 W/m 14,5 C 26,4 C 1,4 km/h (1 Bft)
04/09/2012 16:20 26,8 C 47 % 1019,7 hPa 0,0 mm 9,4 km/h (2 Bft) NE 45 0 min 0 W/m 14,5 C 26,8 C 13,0 km/h (3 Bft)
04/09/2012 16:30 26,8 C 47 % 1019,6 hPa 0,0 mm 7,2 km/h (2 Bft) N-NO 337 0 min 0 W/m 14,5 C 26,8 C 10,1 km/h (2 Bft)
04/09/2012 16:40 26,7 C 47 % 1019,5 hPa 0,0 mm 2,2 km/h (1 Bft) N-NE 22 0 min 0 W/m 14,4 C 26,7 C 6,1 km/h (2 Bft)
04/09/2012 16:50 26,4 C 47 % 1019,4 hPa 0,0 mm 6,1 km/h (2 Bft) N 360 0 min 0 W/m 14,2 C 26,4 C 10,8 km/h (2 Bft)
04/09/2012 17:00 26,2 C 47 % 1019,4 hPa 0,0 mm 7,2 km/h (2 Bft) NE 45 0 min 0 W/m 14,0 C 26,2 C 7,2 km/h (2 Bft)
04/09/2012 17:10 26,1 C 49 % 1019,4 hPa 0,0 mm 2,9 km/h (1 Bft) N-NE 22 0 min 0 W/m 14,5 C 26,1 C 3,2 km/h (1 Bft)
04/09/2012 17:20 26,1 C 49 % 1019,3 hPa 0,0 mm 4,7 km/h (1 Bft) E-NE 67 0 min 0 W/m 14,5 C 26,1 C 4,7 km/h (1 Bft)
04/09/2012 17:30 26,4 C 48 % 1019,2 hPa 0,0 mm 6,1 km/h (2 Bft) N 360 0 min 0 W/m 14,5 C 26,4 C 10,4 km/h (2 Bft)
04/09/2012 17:40 26,4 C 48 % 1019,2 hPa 0,0 mm 5,4 km/h (2 Bft) NE 45 0 min 0 W/m 14,5 C 26,4 C 7,9 km/h (2 Bft)
04/09/2012 17:50 26,5 C 48 % 1019,2 hPa 0,0 mm 4,7 km/h (1 Bft) N-NO 337 0 min 0 W/m 14,6 C 26,5 C 9,0 km/h (2 Bft)
04/09/2012 18:00 26,6 C 48 % 1019,1 hPa 0,0 mm 6,8 km/h (2 Bft) N-NE 22 0 min 0 W/m 14,7 C 26,6 C 14,0 km/h (3 Bft)
04/09/2012 18:10 26,6 C 48 % 1019,0 hPa 0,0 mm 1,8 km/h (1 Bft) NE 45 0 min 0 W/m 14,7 C 26,6 C 4,0 km/h (1 Bft)
04/09/2012 18:20 26,4 C 48 % 1018,9 hPa 0,0 mm 2,9 km/h (1 Bft) N-NE 22 0 min 0 W/m 14,5 C 26,4 C 6,1 km/h (2 Bft)
04/09/2012 18:30 26,3 C 48 % 1018,9 hPa 0,0 mm 6,8 km/h (2 Bft) N 360 0 min 0 W/m 14,4 C 26,3 C 7,9 km/h (2 Bft)
04/09/2012 18:40 25,9 C 48 % 1018,8 hPa 0,0 mm 1,8 km/h (1 Bft) N 360 0 min 0 W/m 14,0 C 25,9 C 6,5 km/h (2 Bft)
04/09/2012 18:50 25,6 C 49 % 1019,0 hPa 0,0 mm 0,4 km/h (0 Bft) N 360 0 min 0 W/m 14,1 C 25,6 C 2,9 km/h (1 Bft)
04/09/2012 19:00 25,6 C 49 % 1018,9 hPa 0,0 mm 2,5 km/h (1 Bft) N-NE 22 0 min 0 W/m 14,1 C 25,6 C 3,6 km/h (1 Bft)
04/09/2012 19:10 25,4 C 49 % 1018,9 hPa 0,0 mm 7,2 km/h (2 Bft) NE 45 0 min 0 W/m 13,9 C 25,4 C 7,9 km/h (2 Bft)
04/09/2012 19:20 25,1 C 50 % 1018,9 hPa 0,0 mm 2,5 km/h (1 Bft) N 360 0 min 0 W/m 13,9 C 25,1 C 8,6 km/h (2 Bft)
04/09/2012 19:30 24,8 C 50 % 1018,8 hPa 0,0 mm 4,3 km/h (1 Bft) N 360 0 min 0 W/m 13,7 C 24,8 C 11,5 km/h (2 Bft)
04/09/2012 19:40 24,5 C 50 % 1018,7 hPa 0,0 mm 2,5 km/h (1 Bft) N 360 0 min 0 W/m 13,4 C 24,5 C 4,3 km/h (1 Bft)
04/09/2012 19:50 24,1 C 51 % 1018,8 hPa 0,0 mm 0,0 km/h (0 Bft) N 360 0 min 0 W/m 13,3 C 24,1 C 0,0 km/h (0 Bft)
04/09/2012 20:00 23,6 C 52 % 1018,8 hPa 0,0 mm 0,7 km/h (0 Bft) N-NO 337 0 min 0 W/m 13,2 C 23,6 C 0,7 km/h (0 Bft)
04/09/2012 20:10 23,1 C 53 % 1018,8 hPa 0,0 mm 1,1 km/h (1 Bft) N-NE 22 0 min 0 W/m 13,0 C 23,1 C 1,4 km/h (1 Bft)
04/09/2012 20:20 22,6 C 54 % 1018,9 hPa 0,0 mm 0,4 km/h (0 Bft) N 360 0 min 0 W/m 12,8 C 22,6 C 3,6 km/h (1 Bft)
04/09/2012 20:30 22,2 C 56 % 1018,9 hPa 0,0 mm 1,8 km/h (1 Bft) N-NE 22 0 min 0 W/m 13,0 C 22,2 C 2,9 km/h (1 Bft)
04/09/2012 20:40 21,7 C 57 % 1019,1 hPa 0,0 mm 0,4 km/h (0 Bft) NE 45 0 min 0 W/m 12,8 C 21,7 C 3,2 km/h (1 Bft)
04/09/2012 20:50 21,3 C 58 % 1019,2 hPa 0,0 mm 0,0 km/h (0 Bft) N-NE 22 0 min 0 W/m 12,7 C 21,3 C 0,0 km/h (0 Bft)
04/09/2012 21:00 20,8 C 59 % 1019,3 hPa 0,0 mm 0,4 km/h (0 Bft) N-NE 22 0 min 0 W/m 12,5 C 20,8 C 2,9 km/h (1 Bft)
04/09/2012 21:10 20,4 C 60 % 1019,5 hPa 0,0 mm 0,0 km/h (0 Bft) N 360 0 min 0 W/m 12,4 C 20,4 C 0,0 km/h (0 Bft)
04/09/2012 21:20 20,1 C 61 % 1019,6 hPa 0,0 mm 0,0 km/h (0 Bft) N 360 0 min 0 W/m 12,3 C 20,1 C 0,0 km/h (0 Bft)
04/09/2012 21:30 19,8 C 62 % 1019,6 hPa 0,0 mm 0,0 km/h (0 Bft) N 360 0 min 0 W/m 12,3 C 19,8 C 0,0 km/h (0 Bft)
04/09/2012 21:40 19,6 C 62 % 1019,8 hPa 0,0 mm 1,8 km/h (1 Bft) N 360 0 min 0 W/m 12,1 C 19,6 C 4,3 km/h (1 Bft)
04/09/2012 21:50 19,3 C 63 % 1019,9 hPa 0,0 mm 0,0 km/h (0 Bft) N 360 0 min 0 W/m 12,1 C 19,3 C 0,0 km/h (0 Bft)
04/09/2012 22:00 19,0 C 64 % 1020,0 hPa 0,0 mm 0,0 km/h (0 Bft) N 360 0 min 0 W/m 12,0 C 19,0 C 0,0 km/h (0 Bft)
04/09/2012 22:10 18,8 C 65 % 1020,0 hPa 0,0 mm 2,5 km/h (1 Bft) N 360 0 min 0 W/m 12,1 C 18,8 C 2,5 km/h (1 Bft)
04/09/2012 22:20 18,6 C 65 % 1020,0 hPa 0,0 mm 1,4 km/h (1 Bft) N-NE 22 0 min 0 W/m 11,9 C 18,6 C 1,4 km/h (1 Bft)
04/09/2012 22:30 18,6 C 66 % 1020,0 hPa 0,0 mm 0,0 km/h (0 Bft) N-NO 337 0 min 0 W/m 12,1 C 18,6 C 0,0 km/h (0 Bft)
04/09/2012 22:40 18,4 C 66 % 1020,1 hPa 0,0 mm 0,0 km/h (0 Bft) N-NO 337 0 min 0 W/m 11,9 C 18,4 C 0,0 km/h (0 Bft)
04/09/2012 22:50 18,3 C 67 % 1020,1 hPa 0,0 mm 4,0 km/h (1 Bft) N-NE 22 0 min 0 W/m 12,1 C 18,3 C 8,3 km/h (2 Bft)
04/09/2012 23:00 18,2 C 68 % 1020,0 hPa 0,0 mm 0,0 km/h (0 Bft) N 360 0 min 0 W/m 12,2 C 18,2 C 0,0 km/h (0 Bft)
04/09/2012 23:10 18,1 C 68 % 1020,0 hPa 0,0 mm 1,4 km/h (1 Bft) N 360 0 min 0 W/m 12,1 C 18,1 C 4,0 km/h (1 Bft)
04/09/2012 23:20 17,8 C 69 % 1019,8 hPa 0,0 mm 0,0 km/h (0 Bft) N 360 0 min 0 W/m 12,0 C 17,8 C 0,0 km/h (0 Bft)
04/09/2012 23:30 17,6 C 69 % 1019,8 hPa 0,0 mm 1,1 km/h (1 Bft) N-NE 22 0 min 0 W/m 11,8 C 17,6 C 1,1 km/h (1 Bft)
04/09/2012 23:40 17,4 C 70 % 1019,8 hPa 0,0 mm 0,0 km/h (0 Bft) N 360 0 min 0 W/m 11,9 C 17,4 C 0,0 km/h (0 Bft)
04/09/2012 23:50 17,4 C 71 % 1019,8 hPa 0,0 mm 0,7 km/h (0 Bft) E-NE 67 0 min 0 W/m 12,1 C 17,4 C 0,7 km/h (0 Bft)
_ Min-Heure 06:40 17:00 19:40 - 23:40 - - - - 03:10 06:40 23:40
Minimum _ 11,9 C 47 % 1018,7 hPa - 0,0 km/h (0 Bft) - - - - 10,1 C 11,9 C 0,0 km/h (0 Bft)
_ Max-Heure 16:30 10:10 00:40 23:50 16:20 - - 23:50 23:50 12:10 16:30 15:10
Maximum _ 26,8 C 92 % 1022,4 hPa 0,0 mm 9,4 km/h
NE (2 Bft)
- - 0 min 0 W/m 16,1 C 26,8 C 14,4 km/h
N-NE (3 Bft)
Moyenne _ 18,6 C 71 % 1020,6 hPa #0,0 mm 1,9 km/h (1 Bft) N - #0 min. 0 W/m 12,8 C 18,6 C 3,4 km/h (1 Bft)
Saint Bonnet de Bellac- Haute Vienne - France